Weather History for KNEW - December, 2013

Change the Weather History Date:

Monday, December 30, 2013

  Actual Average Record
Temperature  
Mean Temperature 51 °F 54 °F  
Max Temperature 58 °F 62 °F 81 °F (1990)
Min Temperature 44 °F 45 °F 20 °F (1983)
Degree Days  
Heating Degree Days 14 12  
Month to date heating degree days 316 306  
Since 1 July heating degree days 516 470  
Cooling Degree Days 0 1  
Month to date cooling degree days 42 30  
Year to date cooling degree days 3001 3008  
Growing Degree Days 4 (Base 50)    
Moisture  
Dew Point 47 °F    
Average Humidity 80    
Maximum Humidity 93    
Minimum Humidity 67    
Precipitation  
Precipitation T in 0.17 in 3.68 in (2006)
Month to date precipitation 3.10 5.07  
Year to date precipitation 66.27 62.28  
Snow  
Snow 0.00 in - - ()
Month to date snowfall 0.0  
Since 1 July snowfall 0.0  
Snow Depth 0.00 in    
Sea Level Pressure  
Sea Level Pressure 30.19 in    
Wind  
Wind Speed 4 mph (North)    
Max Wind Speed 13 mph    
Max Gust Speed 16 mph    
Visibility 10 miles    
Events      
T = Trace of Precipitation, MM = Missing Value Source: NWS Daily Summary

Daily Weather History Graph

Daily Weather History Graph

Search for Another Location

Airport or City:

Trip Planner

Search our weather history database for the weather conditions in past years. The results will help you decide how hot, cold, wet, or windy it might be!

Date:

Astronomy

Dec. 30, 2013 Rise Set
Actual Time 6:55 AM CST 5:10 PM CST
Civil Twilight 6:29 AM CST 5:36 PM CST
Nautical Twilight 5:59 AM CST 6:06 PM CST
Astronomical Twilight 5:30 AM CST 6:35 PM CST
Moon 4:49 AM CST (12/30) 3:40 PM CST (12/30)
Length of Visible Light 11h 07m
Length of Day
10h 14m
Waning Crescent, 4% of the Moon is Illuminated
Dec 30
Waning Crescent
Jan 1
New
Jan 7
First Quarter
Jan 15
Full
Jan 23
Last Quarter

Hourly Weather History & Observations

Time (CST) Temp. Dew Point Humidity Pressure Visibility Wind Dir Wind Speed Gust Speed Precip Events Conditions
12:53 AM 51.1 °F 44.1 °F 77% 30.12 in 10.0 mi SW 3.5 mph - N/A   Clear
1:53 AM 50.0 °F 45.0 °F 83% 30.11 in 10.0 mi Calm Calm - N/A   Partly Cloudy
2:53 AM 52.0 °F 48.9 °F 89% 30.11 in 10.0 mi NNE 6.9 mph - N/A   Clear
3:53 AM 50.0 °F 46.0 °F 86% 30.12 in 10.0 mi NNE 4.6 mph - N/A   Scattered Clouds
4:53 AM 51.1 °F 46.0 °F 83% 30.12 in 10.0 mi North 6.9 mph - N/A   Clear
5:53 AM 52.0 °F 45.0 °F 77% 30.13 in 10.0 mi NE 8.1 mph - N/A   Clear
6:53 AM 52.0 °F 46.0 °F 80% 30.14 in 10.0 mi ESE 5.8 mph - N/A   Partly Cloudy
7:53 AM 52.0 °F 45.0 °F 77% 30.17 in 10.0 mi ESE 3.5 mph - N/A   Clear
8:53 AM 53.1 °F 45.0 °F 74% 30.20 in 10.0 mi Calm Calm - N/A   Clear
9:53 AM 55.0 °F 46.0 °F 72% 30.22 in 10.0 mi Calm Calm - N/A   Clear
10:53 AM 55.0 °F 46.9 °F 74% 30.22 in 10.0 mi Calm Calm - N/A   Partly Cloudy
11:53 AM 57.0 °F 48.0 °F 72% 30.19 in 10.0 mi ESE 4.6 mph - N/A   Scattered Clouds
12:53 PM 57.9 °F 46.9 °F 67% 30.18 in 10.0 mi NNW 4.6 mph - N/A   Overcast
1:53 PM 55.0 °F 48.9 °F 80% 30.18 in 10.0 mi North 4.6 mph - N/A   Mostly Cloudy
2:53 PM 53.1 °F 48.9 °F 86% 30.17 in 10.0 mi North 8.1 mph - N/A   Overcast
3:53 PM 54.0 °F 46.9 °F 77% 30.18 in 10.0 mi North 5.8 mph - N/A   Mostly Cloudy
4:53 PM 54.0 °F 46.0 °F 75% 30.19 in 10.0 mi Calm Calm - N/A   Clear
5:53 PM 53.1 °F 48.9 °F 86% 30.21 in 10.0 mi West 4.6 mph - N/A   Clear
6:53 PM 53.1 °F 50.0 °F 89% 30.23 in 10.0 mi NW 6.9 mph - N/A   Clear
7:53 PM 53.1 °F 48.9 °F 86% 30.25 in 10.0 mi NNW 6.9 mph - N/A   Clear
8:53 PM 53.1 °F 48.9 °F 86% 30.27 in 10.0 mi NW 10.4 mph - N/A   Clear
9:53 PM 53.1 °F 48.9 °F 86% 30.29 in 10.0 mi NNW 9.2 mph - N/A   Clear
10:53 PM 53.1 °F 48.9 °F 86% 30.32 in 10.0 mi NNW 12.7 mph - N/A   Clear
11:53 PM 52.0 °F 48.0 °F 86% 30.31 in 10.0 mi North 11.5 mph - N/A   Partly Cloudy